| time (UTC) | temp C | wind direction | speed KPH | gust KPH | rain 1hr cm | rain 24hr cm | rain mn cm | humidity % | barometer mb |
| 20260505171509 | 23 | 346 | 8.0 | 22.5 | 0.00 | 0.00 | 0.00 | 40 | 1007.0 |
| 20260505170055 | 23 | 350 | 1.6 | 8.0 | 0.00 | 0.00 | 0.00 | 40 | 1006.9 |
| 20260505164555 | 22 | 95 | 1.6 | 12.9 | 0.00 | 0.00 | 0.00 | 44 | 1006.9 |
| 20260505163054 | 21 | 142 | 9.7 | 19.3 | 0.00 | 0.00 | 0.00 | 44 | 1007.0 |
| 20260505161556 | 21 | 137 | 9.7 | 19.3 | 0.00 | 0.00 | 0.00 | 46 | 1006.9 |
| 20260505153051 | 19 | 122 | 8.0 | 17.7 | 0.00 | 0.00 | 0.00 | 51 | 1006.7 |
| 20260505151549 | 18 | 104 | 11.3 | 17.7 | 0.00 | 0.00 | 0.00 | 53 | 1006.6 |
| 20260505124512 | 14 | 15 | 1.6 | 11.3 | 0.00 | 0.00 | 0.00 | 65 | 1004.8 |
| 20260505123022 | 13 | 140 | 3.2 | 11.3 | 0.00 | 0.00 | 0.00 | 69 | 1004.7 |
| 20260505121506 | 13 | 141 | 0.0 | 0.0 | 0.00 | 0.00 | 0.00 | 68 | 1004.6 |
| 20260505120005 | 13 | 121 | 0.0 | 0.0 | 0.00 | 0.00 | 0.00 | 65 | 1004.5 |
| 20260505114601 | 14 | 106 | 0.0 | 0.0 | 0.00 | 0.00 | 0.00 | 65 | 1004.3 |
| 20260505113056 | 15 | 106 | 0.0 | 0.0 | 0.00 | 0.00 | 0.00 | 63 | 1004.2 |
| 20260505111552 | 15 | 352 | 0.0 | 0.0 | 0.00 | 0.00 | 0.00 | 62 | 1004.0 |
| 20260505101549 | 16 | 352 | 0.0 | 0.0 | 0.00 | 0.00 | 0.00 | 59 | 1003.1 |
| 20260505100052 | 16 | 2 | 0.0 | 0.0 | 0.00 | 0.00 | 0.00 | 60 | 1002.9 |
| 20260505094530 | 16 | 26 | 0.0 | 0.0 | 0.00 | 0.00 | 0.00 | 56 | 1002.9 |
| 20260505093029 | 17 | 27 | 0.0 | 0.0 | 0.00 | 0.00 | 0.00 | 54 | 1002.9 |
| 20260505091521 | 17 | 27 | 0.0 | 3.2 | 0.00 | 0.00 | 0.00 | 57 | 1002.6 |
| 20260505090020 | 17 | 27 | 0.0 | 3.2 | 0.00 | 0.00 | 0.00 | 58 | 1002.4 |
| 20260505084520 | 17 | 126 | 0.0 | 1.6 | 0.00 | 0.00 | 0.00 | 57 | 1002.3 |
| 20260505083006 | 17 | 26 | 0.0 | 1.6 | 0.00 | 0.00 | 0.00 | 58 | 1002.3 |
| 20260505081505 | 17 | 90 | 0.0 | 1.6 | 0.00 | 0.00 | 0.00 | 57 | 1002.3 |
| 20260505080004 | 17 | 33 | 0.0 | 0.0 | 0.00 | 0.00 | 0.00 | 56 | 1002.4 |
| 20260505074600 | 17 | 33 | 0.0 | 0.0 | 0.00 | 0.00 | 0.00 | 55 | 1002.5 |
| 20260505071556 | 19 | 22 | 0.0 | 1.6 | 0.00 | 0.00 | 0.00 | 50 | 1001.8 |
| 20260505070058 | 19 | 243 | 0.0 | 0.0 | 0.00 | 0.00 | 0.00 | 48 | 1001.6 |
| 20260505064551 | 20 | 243 | 0.0 | 0.0 | 0.00 | 0.00 | 0.00 | 46 | 1001.7 |
| 20260505063046 | 20 | 190 | 0.0 | 1.6 | 0.00 | 0.00 | 0.00 | 46 | 1001.5 |
| 20260505061540 | 19 | 208 | 0.0 | 0.0 | 0.00 | 0.00 | 0.00 | 46 | 1001.3 |
| 20260505060035 | 18 | 210 | 0.0 | 0.0 | 0.00 | 0.00 | 0.00 | 48 | 1001.3 |
| 20260505054543 | 18 | 85 | 0.0 | 4.8 | 0.00 | 0.00 | 0.00 | 48 | 1001.3 |
| 20260505053039 | 18 | 17 | 0.0 | 0.0 | 0.00 | 0.00 | 0.00 | 46 | 1001.2 |
| 20260505051539 | 18 | 17 | 0.0 | 0.0 | 0.00 | 0.00 | 0.00 | 46 | 1001.1 |
| 20260505041509 | 20 | 308 | 0.0 | 0.0 | 0.00 | 0.00 | 0.00 | 45 | 1000.7 |
| 20260505040051 | 20 | 308 | 0.0 | 0.0 | 0.00 | 0.00 | 0.00 | 44 | 1000.7 |
| 20260505034550 | 21 | 308 | 0.0 | 0.0 | 0.00 | 0.00 | 0.00 | 43 | 1000.5 |
| 20260505033045 | 21 | 308 | 0.0 | 0.0 | 0.00 | 0.00 | 0.00 | 44 | 1000.4 |
| 20260505031548 | 22 | 308 | 0.0 | 0.0 | 0.00 | 0.00 | 0.00 | 46 | 1000.3 |
| 20260505030037 | 23 | 308 | 0.0 | 1.6 | 0.00 | 0.00 | 0.00 | 44 | 1000.1 |
| 20260505024533 | 25 | 117 | 0.0 | 0.0 | 0.00 | 0.00 | 0.00 | 32 | 999.9 |
| 20260505023028 | 26 | 117 | 0.0 | 0.0 | 0.00 | 0.00 | 0.00 | 28 | 999.9 |
| 20260505021529 | 27 | 117 | 0.0 | 1.6 | 0.00 | 0.00 | 0.00 | 28 | 1000.0 |
| 20260505020011 | 28 | 94 | 0.0 | 3.2 | 0.00 | 0.00 | 0.00 | 26 | 1000.0 |
| 20260505014509 | 28 | 128 | 0.0 | 8.0 | 0.00 | 0.00 | 0.00 | 26 | 1000.0 |
| 20260505013005 | 28 | 114 | 4.8 | 8.0 | 0.00 | 0.00 | 0.00 | 25 | 1000.1 |
| 20260505011503 | 29 | 85 | 6.4 | 11.3 | 0.00 | 0.00 | 0.00 | 23 | 1000.3 |
| 20260505010117 | 30 | 119 | 3.2 | 8.0 | 0.00 | 0.00 | 0.00 | 23 | 1000.4 |
| 20260505004558 | 30 | 107 | 3.2 | 6.4 | 0.00 | 0.00 | 0.00 | 22 | 1000.4 |
| 20260505003059 | 30 | 88 | 3.2 | 11.3 | 0.00 | 0.00 | 0.00 | 22 | 1000.5 |
| 20260505001557 | 30 | 102 | 4.8 | 14.5 | 0.00 | 0.00 | 0.00 | 22 | 1000.5 |
| 20260505000054 | 31 | 12 | 3.2 | 11.3 | 0.00 | 0.00 | 0.00 | 21 | 1000.5 |
| 20260504234543 | 31 | 301 | 1.6 | 6.4 | 0.00 | 0.00 | 0.00 | 20 | 1000.4 |
| 20260504233041 | 31 | 343 | 0.0 | 17.7 | 0.00 | 0.00 | 0.00 | 21 | 1000.6 |
| 20260504231545 | 31 | 45 | 0.0 | 6.4 | 0.00 | 0.00 | 0.00 | 21 | 1000.7 |
| 20260504230044 | 30 | 9 | 4.8 | 20.9 | 0.00 | 0.00 | 0.00 | 19 | 1000.7 |
| 20260504224534 | 32 | 319 | 1.6 | 8.0 | 0.00 | 0.00 | 0.00 | 19 | 1000.9 |
| 20260504223032 | 32 | 5 | 4.8 | 8.0 | 0.00 | 0.00 | 0.00 | 19 | 1001.2 |
| 20260504221542 | 31 | 81 | 0.0 | 11.3 | 0.00 | 0.00 | 0.00 | 20 | 1001.4 |
| 20260504220028 | 30 | 303 | 0.0 | 14.5 | 0.00 | 0.00 | 0.00 | 22 | 1001.5 |
| 20260504214514 | 32 | 327 | 6.4 | 12.9 | 0.00 | 0.00 | 0.00 | 21 | 1001.7 |
| 20260504213010 | 32 | 327 | 0.0 | 3.2 | 0.00 | 0.00 | 0.00 | 22 | 1002.0 |
| 20260504211508 | 31 | 10 | 1.6 | 14.5 | 0.00 | 0.00 | 0.00 | 20 | 1002.1 |
| 20260504210007 | 30 | 20 | 0.0 | 12.9 | 0.00 | 0.00 | 0.00 | 23 | 1002.3 |
| 20260504204505 | 30 | 332 | 1.6 | 17.7 | 0.00 | 0.00 | 0.00 | 22 | 1002.5 |
| 20260504203002 | 30 | 129 | 3.2 | 12.9 | 0.00 | 0.00 | 0.00 | 22 | 1002.7 |
| 20260504201504 | 31 | 105 | 3.2 | 12.9 | 0.00 | 0.00 | 0.00 | 21 | 1003.0 |
| 20260504200002 | 30 | 232 | 4.8 | 9.7 | 0.00 | 0.00 | 0.00 | 22 | 1003.2 |
| 20260504194555 | 30 | 257 | 0.0 | 11.3 | 0.00 | 0.00 | 0.00 | 23 | 1003.3 |
| 20260504193049 | 29 | 110 | 0.0 | 14.5 | 0.00 | 0.00 | 0.00 | 23 | 1003.5 |
| 20260504191547 | 29 | 50 | 3.2 | 9.7 | 0.00 | 0.00 | 0.00 | 26 | 1003.5 |
| 20260504190047 | 28 | 108 | 8.0 | 16.1 | 0.00 | 0.00 | 0.00 | 25 | 1003.6 |
| 20260504184546 | 30 | 102 | 1.6 | 8.0 | 0.00 | 0.00 | 0.00 | 23 | 1003.7 |
| 20260504183046 | 28 | 146 | 3.2 | 12.9 | 0.00 | 0.00 | 0.00 | 27 | 1003.8 |
| 20260504181548 | 28 | 149 | 3.2 | 9.7 | 0.00 | 0.00 | 0.00 | 28 | 1003.9 |
| 20260504174529 | 27 | 213 | 0.0 | 8.0 | 0.00 | 0.00 | 0.00 | 31 | 1004.0 |
| 20260504173022 | 26 | 277 | 0.0 | 4.8 | 0.00 | 0.00 | 0.00 | 33 | 1004.0 |